sat.trackr.live / text

‹ back to catalog

STARLINK-37254

NORAD 68553 · 2026-070M

PAYLOAD ACTIVE UNKNOWN

§ Identity

Operator
Country
US
Launch date
2026-04-02
Launch site
AFETR
Launch vehicle
Mass (kg)
RCS (m²)

Purposes: comms

External: N2YO · Heavens-Above · Gunter

§ Orbital elements

Epoch: 2026-09-19T05:37:53.552640Z

Period
93.85 min
Inclination
53.1590°
Eccentricity
0.0001605
Mean motion
15.34412517 rev/d
Perigee alt
461.6 km
Apogee alt
463.8 km
Semi-major
6,840.8 km
B*
6.5178e-4
RAAN
179.5910°
Arg perigee
98.6789°
Mean anomaly
261.4395°
Rev number
2,624

§ Raw data

STARLINK-372541 68553U 26070M   26262.23464760  .00021718  00000+0  65178-3 0  99902 68553  53.1590 179.5910 0001605  98.6789 261.4395 15.34412517 26240

JSON: /api/v1/satellites/68553 · /tle

For live sub-satellite position, see the globe view (requires WebGL).

§ Visibility from observer

Set your observer location to see the next 7 days of passes ≥ 10°. The values pass through the URL so the page stays shareable.

No JS? Fill the form by hand. The geolocation button needs JavaScript.